Theta_e
310 310 310 310 310 311 311 311 311 311 311 309 307 305 305 304 304 302 299 301 298 292 292 294 294 293 293 293 289 295 295 295 293 287 285 286 285 286 284 283 280 280 278 281 284 283 282 288 289 289 291 294 296 297
309 309 309 309 310 310 310 310 310 311 311 309 307 305 304 304 304 304 296 300 301 293 292 297 297 298 297 298 295 295 295 293 295 289 291 288 285 286 283 280 285 281 282 279 282 283 288 288 288 294 296 293 296 294
309 309 309 309 309 309 309 310 310 311 311 309 307 305 304 304 304 303 299 299 297 293 293 294 295 300 302 301 302 294 298 300 298 300 293 290 286 287 282 282 282 284 286 283 283 286 284 287 292 296 300 297 297 296
308 308 308 308 309 309 309 309 310 310 310 309 307 305 303 304 304 303 298 300 297 293 288 293 300 300 304 303 301 301 301 303 302 299 294 291 286 289 285 284 282 284 285 282 284 285 286 288 290 294 296 297 297 298
305 306 307 308 308 308 309 309 309 310 310 309 306 304 303 304 304 303 300 300 300 294 289 292 299 301 303 303 301 301 299 296 298 295 292 289 291 288 288 286 283 286 283 281 281 285 284 285 291 294 293 294 295 294
303 304 306 307 308 308 308 308 309 309 310 309 307 304 304 304 301 298 293 299 300 298 292 288 299 298 301 304 302 300 299 299 297 292 292 293 291 289 284 283 285 285 287 286 285 286 285 288 292 294 293 294 294 293
302 303 304 306 307 308 308 309 309 310 309 307 305 303 303 302 301 293 293 299 302 300 294 291 292 299 300 304 305 303 304 298 296 293 293 293 292 290 286 282 286 286 288 288 291 288 287 290 289 293 293 294 295 294
302 302 303 304 306 307 308 308 309 309 308 305 303 303 302 302 301 297 301 302 302 297 298 290 291 295 302 301 301 302 300 294 293 293 292 291 292 290 284 287 288 289 288 290 289 291 291 292 292 292 294 293 292 291
303 302 303 303 305 307 307 308 308 308 305 303 303 301 300 298 294 298 303 303 302 298 293 293 289 289 300 299 299 301 301 292 293 290 291 291 289 284 287 288 288 289 288 287 290 291 291 290 290 291 291 291 290 290
303 304 304 305 306 306 307 308 308 304 303 302 300 296 293 298 304 306 300 294 294 296 297 291 295 290 296 297 296 297 299 293 288 289 292 289 286 291 292 291 291 290 291 291 288 288 289 289 289 290 290 290 290 290
302 303 304 305 306 307 307 308 304 302 300 297 294 294 302 304 302 298 293 292 292 291 295 294 295 292 299 294 295 297 295 294 288 290 288 287 285 289 294 291 292 293 293 293 293 292 292 291 290 290 290 290 290 289
302 303 304 304 305 306 307 306 303 298 297 298 298 299 300 298 295 291 291 294 292 290 296 295 296 295 299 299 295 295 293 292 286 292 289 286 289 292 293 292 293 294 293 293 293 292 292 292 291 291 291 290 290 290
301 303 303 304 305 306 307 304 301 302 301 300 297 294 292 292 286 287 284 289 290 296 298 297 296 298 296 296 295 294 291 289 295 289 289 291 291 293 294 293 292 293 294 293 292 292 292 292 292 291 291 291 292 290
301 302 303 304 305 306 306 303 301 301 299 290 289 283 286 285 287 290 291 292 297 297 297 297 296 295 296 294 295 290 293 294 286 285 288 292 292 293 295 295 293 292 293 293 293 292 292 292 292 293 292 292 291 290
301 302 303 303 304 305 304 302 301 300 295 288 289 283 285 290 293 295 296 296 299 299 297 294 295 296 294 292 293 291 289 287 290 290 295 293 294 294 295 295 295 294 293 293 294 292 292 292 292 291 292 292 292 290
300 301 301 303 304 304 302 300 297 296 293 290 290 288 291 291 292 293 295 296 299 298 298 298 294 291 291 293 290 289 288 287 293 296 297 295 294 295 295 296 296 295 294 294 294 294 292 291 291 291 292 292 291 291
299 298 303 304 302 300 298 295 293 289 288 287 288 293 293 292 292 294 297 298 300 298 295 295 290 290 293 291 289 292 291 296 298 298 296 296 296 296 296 296 297 296 295 294 294 294 293 292 292 291 290 291 292 293
296 299 304 301 297 297 295 294 290 287 286 288 286 290 293 294 294 295 298 299 299 298 297 294 296 292 290 288 291 296 297 299 298 298 296 297 298 297 295 295 296 296 295 295 294 293 292 291 291 291 292 292 291 292
299 299 302 299 297 293 289 291 292 287 288 291 292 292 293 294 296 298 300 301 302 302 299 296 293 292 293 296 296 298 298 299 298 296 296 298 298 297 296 296 296 295 294 294 293 292 292 292 291 291 291 292 291 292
301 301 300 299 299 291 289 290 294 291 289 292 294 292 293 294 296 297 298 300 300 299 296 294 294 297 298 300 300 300 302 300 297 295 295 296 298 297 296 295 294 295 294 294 293 291 292 291 292 291 291 291 290 290
299 299 299 298 293 293 292 291 290 292 293 291 293 293 292 294 296 297 297 300 298 297 295 298 299 300 301 302 302 302 302 300 299 299 297 295 297 297 295 295 295 294 293 293 292 291 291 292 291 291 290 290 291 292
296 297 294 294 290 291 290 293 293 294 291 292 292 293 292 291 294 296 299 298 297 299 300 300 301 301 300 300 302 302 303 302 301 299 295 295 296 295 294 294 294 293 293 293 293 292 293 293 292 291 291 291 290 292
296 295 292 291 288 287 287 294 289 291 288 289 291 289 290 291 294 300 297 298 300 302 303 302 301 302 302 302 303 303 303 302 302 301 299 299 299 299 297 295 295 294 293 293 295 294 294 291 290 292 293 292 292 292
297 290 287 287 287 285 291 287 289 288 289 287 286 285 288 291 296 295 293 296 300 302 301 301 301 300 300 300 301 302 303 304 304 302 301 300 298 298 298 297 296 296 296 296 295 295 294 294 291 293 293 293 293 292
286 286 287 284 289 287 285 286 287 287 285 287 286 287 290 294 292 291 292 295 298 301 302 301 301 302 301 301 302 302 303 304 303 302 302 302 299 298 298 298 296 296 297 295 294 294 294 295 294 294 294 294 293 293
282 286 285 286 286 285 285 284 285 286 287 286 287 290 292 291 288 288 293 297 299 301 301 301 301 300 300 302 302 301 303 305 305 304 304 303 300 297 297 296 295 295 298 299 297 295 295 295 295 294 294 293 288 294
281 283 286 290 289 288 287 288 289 289 287 286 288 288 289 285 286 292 299 301 301 303 304 303 301 302 303 302 303 304 305 306 306 307 308 305 305 305 301 298 297 300 300 299 299 298 297 297 296 296 296 297 296 295
287 288 284 286 286 288 286 287 288 288 289 293 292 287 287 288 291 297 299 303 303 303 302 303 303 304 303 303 304 304 304 306 306 306 306 306 306 306 305 303 305 293 301 301 300 300 300 300 299 298 297 296 296 297
286 289 289 286 287 288 288 288 290 293 296 294 291 291 293 298 300 298 302 303 305 304 301 301 301 302 302 304 304 305 306 305 303 300 300 298 300 302 303 303 303 302 303 301 289 294 301 300 300 299 298 298 298 298
286 290 287 286 286 286 290 292 293 297 298 297 297 297 297 299 302 304 303 304 301 303 304 303 302 302 302 302 302 302 305 306 305 303 301 300 302 306 302 303 304 303 303 303 302 299 285 295 292 299 298 298 298 297
290 289 287 287 286 289 291 293 294 297 297 297 297 295 294 297 302 305 305 303 302 305 302 301 300 302 302 302 302 302 301 304 304 304 305 305 305 305 304 302 303 304 304 303 302 301 300 299 300 300 299 299 298 296
288 287 287 285 287 292 294 292 292 293 295 295 295 296 297 296 295 301 304 304 303 301 296 299 301 301 304 305 306 305 292 305 305 305 304 304 305 304 304 303 302 301 301 302 301 301 301 301 300 299 298 298 298 297
287 288 288 287 288 288 291 293 292 292 294 292 292 294 294 293 290 297 305 304 303 303 303 304 304 304 304 303 304 304 296 305 300 291 290 291 293 299 305 305 302 300 299 300 301 300 299 298 298 298 296 294 293 293
Wind_Speed
15 16 17 17 17 18 17 16 14 14 11 13 11 9 8 7 6 3 2 5 3 4 11 7 6 7 6 4 4 7 8 1 3 5 5 4 3 4 4 3 8 5 8 5 5 3 2 19 14 9 4 13 11 12
17 18 17 17 17 18 17 17 15 14 12 15 13 11 8 8 6 5 3 2 3 3 9 8 18 22 21 18 6 3 5 4 3 3 3 4 3 3 5 4 4 2 4 6 4 4 6 12 12 16 11 6 5 13
17 18 19 18 18 17 18 17 16 15 13 16 15 12 10 7 7 7 2 2 2 4 8 4 6 4 8 17 14 4 3 2 2 0 3 2 3 2 4 3 6 2 3 3 7 3 13 11 16 15 7 10 12 14
17 17 18 19 19 18 17 17 17 16 13 16 15 11 7 7 7 9 4 3 2 3 5 7 3 8 5 8 14 18 7 3 5 1 2 2 3 3 2 3 3 3 8 8 5 4 10 12 17 13 11 11 16 16
18 19 18 19 20 19 18 17 17 14 13 15 14 10 8 6 6 7 5 7 5 3 4 9 16 3 5 6 12 13 12 5 3 2 2 1 2 2 1 2 1 4 6 4 3 7 4 7 12 11 12 11 12 19
20 20 19 19 19 18 18 17 15 12 13 15 13 11 9 6 2 2 4 3 7 5 3 6 4 4 4 3 6 8 6 5 2 2 1 1 0 3 2 2 2 2 3 3 4 4 3 8 10 10 12 12 15 18
21 21 21 19 18 18 17 15 14 12 12 14 12 7 4 3 3 4 2 2 7 5 3 6 5 3 3 2 2 2 4 2 2 1 2 1 0 2 1 2 1 2 5 6 5 3 2 9 5 10 13 14 17 17
21 22 21 19 17 18 16 14 14 10 13 16 11 7 6 4 5 4 6 16 6 3 4 4 5 5 1 1 2 1 3 2 1 0 2 1 1 1 2 1 2 0 2 4 6 5 5 7 10 10 10 12 16 16
20 22 22 21 18 17 16 14 12 11 16 13 11 6 2 3 3 3 0 11 5 3 3 3 3 4 2 1 1 2 2 2 1 2 0 2 1 1 1 3 1 2 1 2 5 6 7 9 10 10 11 11 15 14
19 20 19 19 17 16 15 12 10 19 16 13 3 4 3 4 6 13 3 4 3 4 4 4 3 5 3 1 1 1 2 1 1 2 2 2 2 3 3 3 4 3 3 5 3 3 4 7 7 10 11 10 10 11
20 19 19 18 18 17 14 6 21 19 12 3 4 4 2 3 4 2 3 4 5 4 5 5 9 6 3 4 2 1 1 2 2 1 3 1 2 3 6 4 7 5 3 2 4 6 6 7 7 9 9 10 10 11
21 20 19 17 16 16 16 20 24 5 3 2 3 1 1 1 3 4 4 4 7 5 5 4 5 6 3 2 3 3 1 1 2 4 3 2 1 7 8 5 5 7 5 6 6 6 7 8 9 9 9 9 10 11
21 20 19 17 16 14 9 22 16 10 7 1 1 3 3 3 5 7 8 6 5 5 5 5 4 2 3 3 3 2 4 2 3 2 3 1 6 8 10 9 9 8 8 8 8 7 8 9 9 9 10 10 12 12
21 20 19 17 15 15 17 24 18 7 3 2 4 5 7 6 7 7 7 3 3 3 5 4 2 3 1 3 1 3 2 2 2 3 2 4 10 9 11 10 11 9 8 8 10 10 9 9 10 10 10 11 12 12
20 20 19 18 16 14 22 23 18 1 2 4 5 7 9 6 4 4 5 3 2 2 4 3 2 2 1 2 0 1 3 4 3 1 0 6 12 10 12 11 10 9 8 8 10 10 10 10 10 9 9 10 11 11
20 21 12 19 15 19 24 18 2 2 2 4 6 5 5 3 7 5 6 4 3 4 3 1 2 2 3 1 3 3 2 3 0 1 2 10 13 11 11 12 12 11 11 9 9 10 9 9 10 10 10 10 10 11
19 6 6 11 24 26 21 5 3 4 5 5 6 7 6 4 5 3 2 2 5 5 3 2 4 1 2 2 3 3 3 0 0 1 5 12 14 13 12 10 11 12 11 10 9 9 10 10 10 10 11 9 9 9
8 5 15 27 20 13 2 2 3 5 7 7 5 3 5 5 3 3 3 3 4 4 5 2 3 4 3 3 2 2 3 1 0 0 6 11 12 10 10 11 10 10 10 10 10 10 10 11 10 8 10 10 9 9
7 8 27 29 12 6 5 5 4 5 9 4 5 4 3 3 5 4 1 3 1 1 5 3 3 3 3 3 3 2 2 3 2 2 5 10 11 12 10 10 10 9 10 10 10 8 7 9 7 7 7 8 7 7
18 20 30 24 9 3 6 4 4 4 4 5 3 4 4 4 2 3 5 4 4 3 3 4 4 3 3 2 3 3 1 4 6 5 6 7 8 10 10 9 7 8 8 8 7 7 7 6 6 7 7 8 7 8
14 16 25 9 2 3 3 4 4 4 3 4 2 4 3 2 3 4 4 5 4 3 4 3 3 3 4 2 2 2 4 6 5 5 8 9 9 9 8 7 9 8 8 7 7 6 7 6 7 6 8 7 7 7
9 17 4 2 3 3 3 3 3 1 3 1 2 3 2 3 3 4 5 4 4 4 4 4 3 4 5 5 4 6 4 7 5 4 7 10 10 9 8 8 8 8 7 8 8 8 7 6 7 7 7 7 6 6
13 4 3 4 4 4 2 2 3 4 4 2 2 3 2 2 1 5 4 3 3 4 5 4 3 3 2 4 4 5 5 8 6 5 8 9 9 8 8 9 8 8 8 7 7 8 7 8 8 8 7 7 7 7
6 4 4 5 4 4 4 4 3 2 1 2 2 2 2 2 4 3 3 3 2 2 5 6 5 4 3 5 5 5 5 5 4 4 6 9 9 9 9 9 8 8 7 8 8 7 8 9 10 9 9 9 9 8
4 4 3 4 4 5 5 4 3 2 2 3 2 2 2 3 3 3 2 3 3 3 3 4 5 5 5 5 4 4 5 5 6 7 7 8 7 6 7 6 6 6 8 9 9 9 8 8 9 9 10 10 11 12
3 4 5 5 3 4 5 4 6 5 3 4 5 1 2 2 3 3 1 1 1 1 0 4 6 6 5 4 6 5 5 5 5 5 6 8 9 9 9 9 8 6 7 8 9 10 10 9 9 11 10 12 8 10
2 3 3 3 1 1 2 1 1 2 4 3 2 3 3 3 3 1 1 1 2 1 2 4 5 6 5 6 4 4 4 5 3 1 3 8 8 7 10 10 9 5 9 11 9 10 11 11 10 10 10 8 10 12
1 1 3 4 2 1 0 2 3 4 2 1 2 3 2 2 2 2 1 1 3 4 3 0 4 5 5 5 6 7 6 4 5 5 5 4 5 6 6 3 6 12 9 11 11 10 9 9 9 9 10 10 9 10
0 0 1 3 1 2 1 1 1 2 1 0 0 1 3 2 1 2 2 4 4 2 3 4 4 5 6 6 5 4 6 6 6 5 4 4 5 5 5 5 7 8 8 10 8 7 12 9 8 8 7 6 6 7
1 1 1 1 1 1 2 1 2 2 2 2 1 1 1 1 1 1 3 4 3 2 1 3 5 5 7 7 6 4 3 3 1 1 1 3 5 5 6 5 7 7 7 9 10 7 5 5 5 5 6 6 6 6
1 0 1 1 1 1 1 1 1 1 1 2 2 1 1 2 1 1 3 5 2 1 3 4 4 3 6 6 6 6 5 5 4 3 3 2 3 8 7 5 3 6 7 8 8 8 8 7 7 7 8 10 10 9
0 1 1 1 0 1 1 0 1 1 1 1 1 1 0 1 1 3 5 4 1 3 2 3 5 5 4 3 3 3 1 0 5 5 5 2 3 6 6 5 5 5 6 7 7 7 10 9 7 7 7 10 9 10
0 0 1 1 1 1 1 1 1 3 2 1 2 1 1 1 1 2 4 5 3 2 3 3 4 5 5 4 3 2 3 2 4 5 6 6 7 11 11 8 4 4 5 7 8 8 8 8 5 5 5 5 5 5
Wind_Direction
288 286 285 286 285 283 281 280 276 275 255 221 217 227 245 261 259 203 226 198 212 250 279 246 232 246 267 249 274 329 325 26 335 9 351 345 314 20 336 354 334 347 328 356 305 326 26 356 343 2 308 330 98 76
292 288 284 282 283 282 281 277 274 267 245 217 214 221 231 245 261 256 254 173 180 238 264 268 267 263 253 249 296 282 292 295 344 343 344 298 308 345 0 333 336 314 11 311 333 340 321 318 281 281 269 253 76 100
297 298 296 290 283 282 281 278 276 268 239 214 210 213 225 224 237 231 247 257 189 275 280 268 241 229 222 231 221 246 224 305 293 237 307 303 324 336 354 17 297 309 15 265 310 55 336 323 343 1 48 102 101 94
304 303 301 296 290 285 279 278 277 271 241 212 208 202 219 251 249 246 243 217 182 280 282 280 298 274 248 198 200 213 262 301 301 308 311 305 299 46 36 340 304 322 309 325 277 348 330 2 350 6 43 72 96 89
312 312 308 306 298 289 283 280 277 267 240 207 195 180 213 238 264 277 255 235 219 245 287 290 301 252 261 219 214 211 231 252 279 274 262 299 289 290 145 202 315 339 332 344 331 342 303 301 331 32 48 69 86 95
310 314 311 309 304 299 294 287 279 265 228 192 183 183 204 210 107 309 275 177 196 183 281 297 309 269 290 201 179 191 195 215 246 253 265 223 134 271 317 339 178 285 253 245 292 327 297 308 6 48 71 71 80 86
310 310 312 312 308 304 300 297 288 271 204 171 166 163 222 196 146 203 318 43 161 146 252 280 285 261 291 220 188 176 172 174 243 198 232 287 105 287 328 304 1 356 322 312 284 297 318 17 24 52 73 78 82 83
309 309 307 304 303 303 301 297 294 280 165 148 151 166 159 238 256 264 247 223 173 222 245 276 278 290 191 259 222 178 183 182 109 251 190 265 189 241 268 275 256 348 355 29 40 33 59 65 56 59 79 92 90 93
301 307 306 303 297 298 295 296 296 155 140 142 140 150 121 199 222 225 231 162 176 282 265 231 276 286 346 244 262 182 222 219 95 258 164 256 336 270 284 338 8 187 3 95 64 43 64 70 74 75 82 89 96 97
301 302 301 299 293 294 289 284 166 140 141 133 162 209 154 206 207 129 180 133 187 228 232 247 216 263 287 286 194 198 205 183 264 83 151 261 264 275 199 105 130 148 138 142 114 74 62 84 84 78 82 86 89 97
299 299 298 296 294 293 288 261 145 132 135 205 186 204 61 109 182 205 210 193 184 230 215 231 213 239 186 254 290 220 241 163 267 115 269 268 243 196 148 141 153 173 180 165 81 106 101 94 100 100 94 94 100 98
297 297 297 292 290 290 291 164 154 142 167 205 126 84 186 168 195 207 208 202 210 230 185 204 208 210 229 231 248 173 260 223 278 150 251 258 142 142 143 138 132 144 121 115 108 115 114 112 106 104 108 105 100 98
294 294 295 291 290 282 260 164 156 135 124 168 173 176 171 185 216 219 196 208 204 192 189 187 197 211 180 222 233 220 239 197 142 226 287 288 145 148 140 122 112 123 124 118 111 103 107 112 118 115 109 112 118 116
289 290 293 289 284 275 185 162 155 151 100 131 171 176 209 190 235 204 215 213 204 169 166 171 156 222 181 213 206 259 76 191 230 229 249 151 167 152 156 146 139 137 118 118 124 128 128 125 126 130 127 135 135 135
288 290 288 281 273 275 169 160 159 152 144 177 194 214 218 233 261 259 241 246 194 128 136 144 127 241 189 241 226 143 207 241 244 305 12 154 159 151 157 161 155 157 155 145 136 136 140 136 133 129 134 137 129 130
287 294 263 253 250 158 145 144 90 29 236 206 233 230 233 251 246 220 228 232 173 149 126 166 132 204 206 239 214 230 263 240 180 238 112 154 160 159 160 170 164 163 162 158 143 136 136 140 145 140 140 142 144 147
284 238 242 175 140 138 130 107 154 191 218 221 230 231 252 285 256 244 218 213 158 161 174 157 201 198 119 221 231 198 232 224 254 154 161 169 169 174 173 162 168 170 167 168 159 153 145 139 140 147 148 151 150 150
251 259 180 138 127 129 43 128 163 198 234 228 238 227 203 229 246 242 224 160 165 178 158 174 132 195 213 215 219 213 228 223 292 255 171 175 172 161 162 161 162 165 163 160 158 148 144 151 160 163 154 152 148 143
240 202 162 148 137 123 158 178 205 232 223 225 229 238 238 243 227 238 225 137 87 118 129 167 186 204 219 211 248 239 217 208 158 132 160 172 168 163 161 160 157 157 155 154 153 160 160 166 159 157 158 163 161 155
242 191 159 154 134 129 167 190 210 255 230 212 211 191 209 216 193 177 171 154 157 168 180 207 205 197 203 211 217 262 162 150 143 134 150 163 168 164 165 160 162 154 148 143 140 143 146 145 152 158 163 169 167 167
198 157 150 133 78 263 201 186 190 241 249 229 195 194 202 178 195 179 156 156 186 207 200 202 205 198 205 216 209 203 168 174 184 178 171 165 173 172 162 158 151 154 157 159 161 160 171 167 154 156 160 170 175 168
116 112 106 115 218 211 236 245 254 246 225 233 199 211 194 189 184 182 135 187 212 205 204 187 202 187 204 218 204 209 163 171 166 136 141 136 160 165 169 166 163 168 169 170 167 167 171 156 152 155 161 158 166 168
101 98 95 172 192 198 254 179 227 215 214 164 181 198 197 200 143 154 201 200 219 207 195 194 167 186 209 142 147 154 162 167 174 180 169 176 172 171 167 171 177 170 170 174 170 163 162 151 161 162 162 163 171 175
107 111 162 174 199 178 194 205 217 219 231 212 203 202 174 151 150 214 234 200 211 149 192 184 171 148 136 160 186 179 160 172 164 168 173 171 173 176 179 178 179 186 179 158 164 161 158 169 161 174 174 176 184 191
131 171 198 172 200 203 187 163 171 186 221 179 207 239 157 166 185 201 228 207 203 218 198 171 192 203 194 181 169 156 160 180 177 179 185 189 168 148 169 176 182 183 166 154 166 169 170 170 179 183 185 192 197 200
127 170 192 178 157 192 193 167 183 184 168 181 215 203 163 169 195 233 186 11 348 12 200 208 195 182 191 194 169 172 180 181 171 188 178 188 177 172 168 168 172 182 193 186 172 178 179 184 189 193 203 208 207 211
103 151 165 240 276 198 203 171 111 172 186 198 166 166 179 195 203 126 93 70 313 334 299 274 221 202 177 155 131 119 127 153 154 158 152 188 189 185 183 170 162 194 179 183 186 190 191 192 199 206 213 212 211 208
2 273 150 157 202 229 74 157 176 180 160 141 178 176 204 184 149 67 356 1 322 312 316 264 183 180 157 150 129 128 118 121 113 108 99 130 183 193 180 153 180 169 183 186 190 194 201 203 204 201 202 207 206 204
346 97 201 156 214 207 245 187 104 59 57 154 334 154 106 51 41 3 335 328 316 283 142 130 107 116 112 115 116 122 143 157 154 152 155 157 177 185 175 163 173 182 188 184 187 200 203 201 198 198 203 207 207 195
37 213 78 101 182 128 53 174 129 113 74 43 44 128 124 109 297 284 302 335 344 343 56 140 151 148 149 152 143 145 184 205 135 74 319 237 214 164 156 178 183 181 176 176 179 171 111 160 139 166 177 182 189 184
356 144 87 41 318 12 36 74 84 81 80 73 30 44 43 333 273 229 341 331 292 201 167 148 143 162 155 152 159 166 187 202 202 217 235 331 170 161 159 142 167 167 167 170 170 179 179 187 196 200 200 202 200 199
150 159 173 192 289 27 281 91 87 85 85 96 65 96 230 249 339 7 10 350 121 148 176 187 161 155 154 125 152 111 349 283 168 184 180 173 134 140 125 125 184 167 161 168 178 186 191 196 190 199 214 224 224 218
112 121 202 280 292 124 66 172 142 120 124 73 34 314 74 44 332 319 355 20 24 25 116 111 98 104 121 122 127 192 243 356 76 116 146 157 155 148 162 183 188 166 170 188 182 176 177 179 186 195 208 221 232 232